FENGYUN 1C DEB

Satellite information

Favourite Embed

Satellite Type and Status

DEBRISIN ORBIT

Key statistics

Satellite FENGYUN 1C DEB at a glance.

Uptime

9655

Days in orbit

Revolutions

≈ 14.2

Per day

Orbit

SSO

Sun Synchronous Orbit

Inclination

98.6

Latest

Satellite identification and parameters

Extended collection of information and parameters for FENGYUN 1C DEB.

Object identification

Identified? True

Debris? True

Object name: FENGYUN 1C DEB

International designator: 1999-025CRK

Object number (NORAD): 32117

Object ID (CCSDS): 32117

Country: PEOPLES REPUBLIC OF CHINA (PRC)

Current information (Y/N): Y

RCS size: SMALL

Orbital parameters

Period: 101.156 minutes

Inclination: 98.6184 deg

SMA: 7191.54 km

Apoapsis: 832.209 km

Periapsis: 794.6 km

RAAN: 334.1335 deg

Eccentricy: 0.00261475

Argument of periapsis: 260.3633 deg

Mean anomaly: 99.4592 deg

Mean motion: 14.23540911 rev/day

Mean motion (dot): 0.00002691 rev/day2

B* drag term: 0.0011971682 1/REarth

Two-line elements (TLE)

Creation date: Oct. 15, 2025, 2:21 a.m.

Reference frame: TEME

Reference center: EARTH

Epoch: Oct. 14, 2025, 1:57 p.m. UTC

TLE line 0: 0 FENGYUN 1C DEB

TLE line 1: 1 32117U 99025CRK 25287.58192319 .00002691 00000-0 11972-2 0 9991

TLE line 2: 2 32117 98.6184 334.1335 0026147 260.3633 99.4592 14.23540911939556

Live tracking on map

Real-time ground track for satellite FENGYUN 1C DEB.

In-orbit conjunctions

A list of the most updated potential collisions computed for object FENGYUN 1C DEB.

Target Orbit TCA Probability of collision Miss distance Type
METEOR 2-8 DEB LEO 2025-09-08 01:16:45 0.0001303101 61.0 (m) DEBRIS
FENGYUN 1C SSO 2025-03-29 11:29:43 0.0001526917 935.0 (m) PAYLOAD
ORBCOMM FM 5 DEB LEO 2024-11-07 19:56:40 0.0001958472 316.0 (m) DEBRIS
SL-3 R/B LEO 2024-09-08 04:23:36 0.0001240746 172.0 (m) ROCKET BODY
COSMOS 2369 LEO 2024-07-05 19:32:15 0.0004278297 109.0 (m) PAYLOAD

Associated space launch

Chinese polar orbiting meteorological satellite

FENGYUN 1C DEB was lifted into orbit during the mission ‘Long March 4B | Feng Yun 1C’, on board a Long March 4B space rocket.

The launch took place on May 10, 1999, 1:33 a.m. from Launch Complex 7.

For more information about the launch, click the button.

Launch to space Long March 4B | Feng Yun 1C
Long March 4B | Feng Yun 1C

Agency: N/A

Status: Launch Successful

Launch date: May 10, 1999, 1:33 a.m. UTC

Rocket: Long March 4B

Launch pad: Launch Complex 7

Location: Taiyuan Satellite Launch Center, People's Republic of China

...

Latest news about this satellite

There are no fresh news available about this satellite. Check back as we update our databases every day.


Newsletter sign-up

Weekly statistics, charts and insights to help you stay on top of the space industry.